Location: Stilling
(56.0622°N, 9.9882°E)
Time: 11:41:08
(UTC+00:00)

Cosmos 2151 - Pass Details

Date: 13 July 2020
Orbit: 580 x 602 km, 82.5° (Epoch: 06 August)

Event Time Altitude Azimuth Distance (km) Brightness Sun altitude
Exits shadow 21:17:31 - 174° (S) 2,130 5.2 -7.7°
Reaches altitude 10° 21:18:01 10° 173° (S) 1,929 5.0 -7.7°
Maximum altitude 21:22:11 55° 96° (E) 722 3.2 -8.0°
Drops below altitude 10° 21:26:20 10° 19° (NNE) 1,931 6.3 -8.3°
Sets 21:28:34 0° 15° (NNE) 2,833 7.3 -8.4°
